FW7873 Weather Reports


time (UTC)temp
C
wind
direction
speed
KPH
gust
KPH
rain 1hr
cm
rain 24hr
cm
rain mn
cm
humidity
%
barometer
mb
20260509000056 16 211 3.2 12.9 0.00 0.00 0.00 38 1007.0
20260508234559 16 0 1.6 14.5 0.00 0.00 0.00 41 1007.1
20260508233110 16 271 3.2 11.3 0.00 0.00 0.00 40 1007.1
20260508231559 16 261 1.6 20.9 0.00 0.00 0.00 40 1007.0
20260508230104 16 252 6.4 19.3 0.00 0.00 0.00 39 1007.1
20260508224611 17 271 6.4 16.1 0.00 0.00 0.00 38 1007.1
20260508223102 17 286 1.6 9.7 0.00 0.00 0.00 38 1007.2
20260508221559 17 304 3.2 12.9 0.00 0.00 0.00 39 1007.4
20260508220100 17 0 6.4 17.7 0.00 0.00 0.00 38 1007.4
20260508214608 17 289 3.2 17.7 0.00 0.00 0.00 36 1007.4
20260508213058 18 28 4.8 17.7 0.00 0.00 0.00 37 1007.5
20260508211555 18 267 11.3 24.1 0.00 0.00 0.00 37 1007.6
20260508210107 18 256 8.0 19.3 0.00 0.00 0.00 33 1007.8
20260508204558 17 138 3.2 14.5 0.00 0.00 0.00 33 1007.8
20260508203102 18 316 3.2 14.5 0.00 0.00 0.00 39 1007.9
20260508201556 18 235 4.8 14.5 0.00 0.00 0.00 37 1008.2
20260508200100 18 286 4.8 17.7 0.00 0.00 0.00 40 1008.6
20260508194559 17 227 4.8 25.7 0.00 0.00 0.00 40 1008.6
20260508193113 18 312 4.8 17.7 0.00 0.00 0.00 39 1008.9
20260508191613 18 313 6.4 19.3 0.00 0.00 0.00 38 1009.2
20260508190054 17 264 1.6 17.7 0.00 0.00 0.00 41 1009.4
20260508184557 17 181 4.8 16.1 0.00 0.00 0.00 38 1009.6
20260508183057 17 314 8.0 25.7 0.00 0.00 0.00 35 1009.9
20260508181554 17 211 4.8 17.7 0.00 0.00 0.00 39 1010.0
20260508180058 17 184 3.2 17.7 0.00 0.00 0.00 38 1010.1
20260508174557 16 216 6.4 19.3 0.00 0.00 0.00 36 1010.4
20260508173056 16 355 4.8 12.9 0.00 0.00 0.00 38 1010.8
20260508171607 16 250 6.4 14.5 0.00 0.00 0.00 39 1010.9
20260508170100 15 80 3.2 19.3 0.00 0.00 0.00 40 1011.2
20260508164557 15 270 3.2 14.5 0.00 0.00 0.00 39 1011.3
20260508163100 15 284 4.8 14.5 0.00 0.00 0.00 42 1011.5
20260508161607 14 277 4.8 17.7 0.00 0.00 0.00 46 1011.5
20260508160100 13 266 1.6 11.3 0.00 0.00 0.00 47 1011.9
20260508154601 13 292 1.6 9.7 0.00 0.00 0.00 51 1011.9
20260508153058 12 161 4.8 17.7 0.00 0.00 0.00 50 1012.0
20260508151557 12 259 0.0 8.0 0.00 0.00 0.00 56 1012.0
20260508150057 11 360 1.6 6.4 0.00 0.00 0.00 55 1012.1
20260508144559 11 0 1.6 8.0 0.00 0.00 0.00 58 1012.3
20260508143104 11 11 1.6 8.0 0.00 0.00 0.00 61 1012.4
20260508141557 10 331 1.6 11.3 0.00 0.00 0.00 59 1012.5
20260508134601 9 170 3.2 9.7 0.00 0.00 0.00 74 1012.7
20260508133100 8 121 1.6 4.8 0.00 0.00 0.00 80 1012.7
20260508131602 7 207 1.6 12.9 0.00 0.00 0.00 83 1012.7
20260508130111 7 0 1.6 8.0 0.00 0.00 0.00 87 1012.8
20260508124559 6 360 1.6 6.4 0.00 0.00 0.00 89 1012.7
20260508123103 6 156 1.6 9.7 0.00 0.00 0.00 91 1012.6
20260508121607 5 134 3.2 6.4 0.00 0.00 0.00 92 1012.5
20260508120059 4 202 1.6 4.8 0.00 0.00 0.00 92 1012.5
20260508114557 3 0 0.0 1.6 0.00 0.00 0.00 91 1012.3
20260508113102 3 0 0.0 3.2 0.00 0.00 0.00 91 1012.1
20260508111601 3 0 1.6 3.2 0.00 0.00 0.00 90 1011.9
20260508110101 2 0 0.0 0.0 0.00 0.00 0.00 89 1011.7
20260508104624 2 0 0.0 0.0 0.00 0.00 0.00 89 1011.6
20260508103057 2 0 0.0 0.0 0.00 0.00 0.00 88 1011.6
20260508101557 3 0 0.0 0.0 0.00 0.00 0.00 88 1011.6
20260508100059 3 0 0.0 0.0 0.00 0.00 0.00 87 1011.6
20260508094559 3 0 0.0 0.0 0.00 0.00 0.00 87 1011.6
20260508093101 3 0 0.0 0.0 0.00 0.00 0.00 86 1011.7
20260508091614 3 0 0.0 0.0 0.00 0.00 0.00 86 1011.8
20260508090109 4 0 0.0 0.0 0.00 0.00 0.00 85 1011.9
20260508084557 4 0 0.0 0.0 0.00 0.00 0.00 84 1011.8
20260508083111 5 0 0.0 0.0 0.00 0.00 0.00 84 1011.8
20260508081601 5 0 0.0 0.0 0.00 0.00 0.00 83 1011.9
20260508080109 5 0 0.0 0.0 0.00 0.00 0.00 81 1011.9
20260508074556 6 0 0.0 0.0 0.00 0.00 0.00 81 1012.0
20260508073057 6 0 0.0 3.2 0.00 0.00 0.00 80 1011.9
20260508071602 6 0 0.0 1.6 0.00 0.00 0.00 80 1012.0
20260508070140 6 0 0.0 4.8 0.00 0.00 0.00 79 1012.1
20260508064608 6 0 0.0 3.2 0.00 0.00 0.00 79 1012.0
20260508063053 6 263 0.0 4.8 0.00 0.00 0.00 78 1012.1
20260508061603 7 0 0.0 4.8 0.00 0.00 0.00 78 1012.1
20260508060057 7 0 1.6 4.8 0.00 0.00 0.00 77 1012.2
20260508054554 6 0 0.0 3.2 0.00 0.00 0.00 76 1012.2
20260508053104 6 0 0.0 3.2 0.00 0.00 0.00 75 1012.2
20260508051554 6 0 0.0 0.0 0.00 0.00 0.00 73 1012.2
20260508050100 7 0 0.0 1.6 0.00 0.00 0.00 71 1012.3
20260508044554 7 0 0.0 3.2 0.00 0.00 0.00 69 1012.3
20260508043104 7 0 0.0 1.6 0.00 0.00 0.00 68 1012.2
20260508041557 8 0 0.0 8.0 0.00 0.00 0.00 65 1012.3
20260508040100 8 277 0.0 3.2 0.00 0.00 0.00 63 1012.3
20260508034556 8 0 3.2 9.7 0.00 0.00 0.00 63 1012.4
20260508033057 8 352 1.6 4.8 0.00 0.00 0.00 67 1012.3
20260508031558 8 360 0.0 3.2 0.00 0.00 0.00 65 1012.1
20260508030103 9 0 0.0 4.8 0.00 0.00 0.00 63 1012.1
20260508024603 9 173 1.6 6.4 0.00 0.00 0.00 59 1012.1
20260508023059 9 292 0.0 6.4 0.00 0.00 0.00 57 1012.5
20260508021559 10 219 0.0 4.8 0.00 0.00 0.00 56 1012.5
20260508020100 10 211 3.2 9.7 0.00 0.00 0.00 55 1012.2
20260508014556 10 205 0.0 8.0 0.00 0.00 0.00 55 1012.3
20260508013107 9 0 0.0 6.4 0.00 0.00 0.00 56 1012.1
20260508011557 10 0 0.0 4.8 0.00 0.00 0.00 55 1012.0
20260508004604 10 308 0.0 8.0 0.00 0.00 0.00 54 1011.8
20260508003059 10 360 0.0 8.0 0.00 0.00 0.00 52 1011.8
20260508001556 10 0 1.6 6.4 0.00 0.00 0.00 50 1011.8